Погода в Мамакане

Погода в Мамакане : погода сейчас, прогноз погоды и архив. Всё, что Вы хотите узнать о погоде в Мамакане!

Поиск расширенной информации на нашем сайте:

Другие новости

Новости СМИ2

Главная страница сайта

Новости сайта

03.07.2017

Напоминаем, что на нашем специализированном сайте Метеоцентр.Азия вы можете получить высокодетализированные автоматические прогнозы погоды по пунктам России, СНГ и мира в авиационном формате (включающие направление и скорость ветра, видимость, явления погоды, количество и форму облачности, нижнюю и верхнюю границу облачности).


Погода в Мамакане - сегодня

Время (UTC), дата Ветер
(°,м/с) 
Видим.   Явления Облачность Т
(°С)
Тd
(°С)
f(%) Тe
(°С)
Pmin
(гПа)
dP
(гПа)
Po
(мм)
O2
(г/м3)
Тmin Tmax R s Состояние
почвы
00 21.10.17 120 (ЮВ) 20000 м    9/1 600 м средняя, верхняя 
[St|Ac trans|Ci]
-17.9 -19.8 85 -18  1034.5  -0.3  751  325  -17.9      равномерный
сухой снег
100% 
03 21.10.17 120 (ЮВ) 20000 м    3/0 средняя 
[Ac trans]
-13.5 -17 75 -16  1032.9  -1  750  319  -18.1         
06 21.10.17 130 (ЮВ) 20000 м    ясно 
-7.6 -14.8 56 -9  1029.5  -2.5  748  311           
09 21.10.17 120 (ЮВ) 20000 м    ясно 
-8.9 -15.6 58 -9  1028.4  -1.3  747  313           
12 21.10.17 тихо ()   н/о    ясно 
-14.6 -16.6 85 -15  1029.7  0.6  748  320    -6.6       
15 21.10.17 тихо ()   н/о    ясно 
-16.8 -18.1 90 -17  1030.4  0.3  748  323           
18 21.10.17 тихо ()   н/о    3/0 верхняя 
[Ci fib]
-17.4 -18.6 90 -17  1030.4  748  323           
21 21.10.17 260 (З) н/о    3/0 верхняя 
[Ci fib]
-17.9 -19.1 90 -18  1030.2  -0.3  748  324           
00 22.10.17 120 (ЮВ) 20000 м    9/0 средняя, верхняя 
[Ac lent|Ci]
-15.7 -17 90 -16  1028.7  -1.2  747  321  -18.2      равномерный
сухой снег
100% 
03 22.10.17 090 (В) 20000 м    10/0 средняя, верхняя 
[Ac lent|Cs]
-12.6 -14.6 85 -15  1026.4  -1.7  745  316           
06 22.10.17 340 (С) 20000 м  {снег}  10/4 1000 м кучево-дожд., средняя, верхняя 
[Cb cap|Ac lent|Cs]
-10.1 -12.9 80 -10  1023.8  -2.3  744  312           
09 22.10.17 100 (В) 20000 м    10/6 1000 м кучево-дожд., средняя 
[Cb cap|Ac lent]
-8.1 -12.2 72 -8  1023.1  -0.5  743  310           
12 22.10.17 тихо ()   н/о  {ливн. осадки}  10/8 1000 м кучево-дожд., средняя 
[Cb cap|Ac lent]
-7.5 -10.5 79 -8  1022.9  743  309    -7.5  0.0     
15 22.10.17 100 (В) н/о  слаб. ливневой снег  10/10 1000 м кучево-дожд. 
[Cb cap]
-6.7 -10 77 -6  1022.4  -0.4  743  308           
18 22.10.17 тихо ()   н/о  слаб. ливневой снег  10/10 1000 м кучево-дожд. 
[Cb cap]
-6.8 -9.7 80 -7  1021.7  -0.7  743  308           
21 22.10.17 110 (В) н/о  {ливн. осадки}  9/8 1000 м кучево-дожд., средняя, верхняя 
[Cb cap|Ac lent|Ci fib]
-5.8 -8.4 82 -5  1020.3  -1.3  742  306           
00 23.10.17 090 (В) 20000 м  {ливн. осадки}  9/3 1000 м средняя, верхняя 
[Sc diur, vesp|Ac lent|Ci fib]
-9.5 -10.7 91 -9  1018.8  -1.8  740  310  -10.2    0.0  равномерный
сухой снег
100% 
03 23.10.17 тихо ()   20000 м    10/0 средняя, верхняя 
[Ac lent|Cs]
-4.6 -7.7 79 -5  1015  -3.1  738  303           
06 23.10.17 300 (СЗ) 10 км  слаб. ливневой снег  10/10 1000 м кучево-дожд. 
[Cb cap]
-3 -6.8 75 -3  1013.1  -1.8  737  301           
09 23.10.17 тихо ()   10 км  ледяной дождь (гололёд){снег}  10/0 средняя 
[As op]
-2.7 -4 91 -3  1011.9  -1  736  300           
12 23.10.17 110 (В) н/о  слаб. снег  10/0 средняя 
[As op]
-2.4 -3 96 -2  1012.3  0.4  736  300    -2.4     
15 23.10.17 270 (З) 5-11{12}  н/о  позёмок  9/4 1000 м кучево-дожд., средняя, верхняя 
[Cb cap|Ac lent|Ci fib]
+2.3 -4.1 63 1013.5  1.7  737  295           
18 23.10.17 260 (З) 3{14}  н/о  слаб. ливневой снег  10/10 1000 м кучево-дожд. 
[Cb cap]
+0.7 -2.7 78 -1  1017.1  3.3  740  298           
21 23.10.17 250 (З) н/о    9/5 1000 м кучево-дожд., верхняя 
[Cb cap|Ci fib]
+0.8 -5.3 64 -1  1017.7  0.6  740  298           
00 24.10.17 250 (З) 20000 м  осадки на расстоянии  10/8 1000 м кучево-дожд., верхняя 
[Cb cap|Cs]
+0 -4.6 71 -1  1019.7  1.8  742  299  -2.4    0.0  равномерный
мокрый или
старый снег
100% 
Время (UTC), дата Ветер
(°,м/с) 
Видим.   Явления Облачность Т
(°С)
Тd
(°С)
f(%) Тe
(°С)
Pmin
(гПа)
dP
(гПа)
Po
(мм)
O2
(г/м3)
Тmin Tmax R s Состояние
почвы

Для получения пояснительной информации подведите курсор к названию столбца.

ПОГОДА в Мамакане - архив

Всё, что Вы хотите узнать о погоде в Мамакане - удобно и подробно!

Выберите нужную дату (начиная с 1 января 2015* года) и нажмите кнопку "Найти".
Будут отображены архивные сводки погоды по пункту Мамакан, начиная с указанной даты.


Отображать данные в формате CSV (для использования в таблицах Excel)


Внимание! Наш архив погоды предназначен исключительно для личного некоммерческого использования в познавательных целях. Если Вам необходимы официальные справки о состоянии погоды (для производственных, юридических, коммерческих и т.п. целей), обращайтесь в органы Росгидромета.

*Примечание: данная дата относится к архиву по метеостанциям СССР (Россия, СНГ, Балтия).
Архив по метеостанциям Зарубежной Европы и Азии (кроме Китая) хранится 10 дней, по другим регионам земного шара (Китай, Африка, Америка, Австралия, Океания) - 1 день.

Мамакан - район местоположения метеостанции


Название, широта, долгота, высота метеостанции:
Мамакан 57.82°ш. 114°д. 249 м над ур. моря [Российская Федерация]

Дополнительная информация

В oтличие oт бoльшинства пoгoдных сайтoв мы публикуем пoдрoбную метеoинфoрмацию в детальнoм прoфессиoнальнoм фoрмате.

Характеристики температуры и влажнoсти вoздуха измеряются на высoте 2 м в тени вдали oт зданий и деревьев.
Скoрoсть ветра измеряется на высoте 10 м (на урoвне рoста челoвека скoрoсть ветра ниже в 1.5-2 раза). Если метеoстанция нахoдится в гoрoде или в лесу, тo скoрoсть ветра занижена на 2-4 м/с пo сравнению с oткрытым местoм. Скoрoсть ветра над акватoриями крупных рек и oзёр, а также на вершинах хoлмoв на 2-5 м/с выше, чем в oбычных услoвиях.
Атмoсфернoе давление в разных тoчках местнoсти мoжет значительнo oтличаться oт давления на метеoстанции, в зависимoсти oт услoвий рельефа (при пoдъёме на 10 м давление пoнижается примернo на 1 мм рт.ст.).